DELTA 1 DEB

Satellite information

Favourite Embed

Satellite Type and Status

DEBRISIN ORBIT

Key statistics

Satellite DELTA 1 DEB at a glance.

Uptime

17450

Days in orbit

Revolutions

≈ 14.2

Per day

Orbit

SSO

Sun Synchronous Orbit

Inclination

99.2

Latest

Satellite identification and parameters

Extended collection of information and parameters for DELTA 1 DEB.

Object identification

Identified? True

Debris? True

Object name: DELTA 1 DEB

International designator: 1978-026EG

Object number (NORAD): 12288

Object ID (CCSDS): 12288

Country: UNITED STATES OF AMERICA (US)

Current information (Y/N): Y

RCS size: SMALL

Orbital parameters

Period: 101.275 minutes

Inclination: 99.1709 deg

SMA: 7197.182 km

Apoapsis: 875.323 km

Periapsis: 762.771 km

RAAN: 322.3251 deg

Eccentricy: 0.0078192

Argument of periapsis: 332.8234 deg

Mean anomaly: 85.9139 deg

Mean motion: 14.2186724 rev/day

Mean motion (dot): 0.00002531 rev/day2

B* drag term: 0.0011341 1/REarth

Two-line elements (TLE)

Creation date: Dec. 12, 2025, 7:16 a.m.

Reference frame: TEME

Reference center: EARTH

Epoch: Dec. 11, 2025, 10:21 p.m. UTC

TLE line 0: 0 DELTA 1 DEB

TLE line 1: 1 12288U 78026EG 25345.93148051 .00002531 00000-0 11341-2 0 9997

TLE line 2: 2 12288 99.1709 322.3251 0078192 332.8234 85.9139 14.21867240304498

Live tracking on map

Real-time ground track for satellite DELTA 1 DEB.

In-orbit conjunctions

A list of the most updated potential collisions computed for object DELTA 1 DEB.

Target Orbit TCA Probability of collision Miss distance Type
DTUSAT SSO 2025-05-29 18:26:31 0.002524826 126.0 (m) PAYLOAD
IRIDIUM 38 LEO 2025-04-14 23:09:09 0.0002708334 165.0 (m) PAYLOAD
COSMOS 2251 DEB LEO 2025-02-22 05:53:37 0.0001038742 404.0 (m) DEBRIS
SL-8 R/B LEO 2025-02-22 04:06:08 0.0001191973 136.0 (m) ROCKET BODY
FENGYUN 1C DEB SSO 2024-08-09 09:36:44 0.0001151776 392.0 (m) DEBRIS

Associated space launch

Earth observation satellite

DELTA 1 DEB was lifted into orbit during the mission ‘Delta 2910 | Landsat 3’, on board a Delta 2910 space rocket.

The launch took place on March 5, 1978, 5:54 p.m. from Space Launch Complex 2W.

For more information about the launch, click the button.

Launch to space Delta 2910 | Landsat 3
Delta 2910 | Landsat 3

Agency: N/A

Status: Launch Successful

Launch date: March 5, 1978, 5:54 p.m. UTC

Rocket: Delta 2910

Launch pad: Space Launch Complex 2W

Location: Vandenberg SFB, CA, USA

...

Latest news about this satellite

There are no fresh news available about this satellite. Check back as we update our databases every day.


Newsletter sign-up

Weekly statistics, charts and insights to help you stay on top of the space industry.